Regional Weather Roundup
Issued by NWS

Home | Current Version | Previous Version | Text Only | Print | Product List | Glossary Off
Versions: 1 2 3 4 5 6 7 8 9 10 11 12 13 14 15 16 17 18 19 20 21 22 23 24 25 26 27 28 29 30 31 32 33 34 35 36 37 38 39 40 41 42 43 44 45 46 47 48 49 50

183
ASUS43 KDTX 270110
RWRMI
MICHIGAN HOURLY REGIONAL WEATHER ROUNDUP
NATIONAL WEATHER SERVICE DETROIT/PONTIAC MI
900 PM EDT TUE JUL 26 2016

NOTE: "FAIR" INDICATES FEW OR NO CLOUDS BELOW 12,000 FEET WITH NO
SIGNIFICANT WEATHER AND/OR OBSTRUCTION TO VISIBILITY.

MIZ047>049-052>055-059>063-066>070-074>076-081>083-270200-
SOUTHEAST LOWER MICHIGAN

CITY           SKY/WX    TMP DP  RH WIND       PRES   REMARKS
ADRIAN         CLEAR     78  62  57 W3        30.02S
ALMA           CLEAR     77  68  74 CALM      29.99S
ANN ARBOR      MOCLDY    81  59  47 W3        30.00R
BAD AXE        CLEAR     74  58  58 S5        29.98S
CARO           CLEAR     73  64  73 CALM      29.97S
DETROIT CITY   CLEAR     79  60  52 S7        30.00R
DETROIT        MOCLDY    78  62  57 S7        30.00S
FLINT          PTCLDY    83  62  49 W6        29.99S
GROSSE ILE     CLEAR     78  64  61 S7        29.99S
HOWELL         CLEAR     79  60  52 W3        30.01R

CITY           SKY/WX    TMP DP  RH WIND       PRES   REMARKS
JACKSON        CLEAR     75  64  68 SW3       30.02S
LAMBERTVILLE   CLEAR     76  64  66 CALM      30.01S
LANSING        CLEAR     80  63  55 W6        30.01R
LAPEER         MOCLDY    80  63  55 SW6       30.00R
MASON          CLEAR     78  63  59 CALM      30.01S
MONROE         CLEAR     77  62  59 CALM      29.99F
MT. CLEMENS    PTCLDY    75  67  76 S9        29.97S
PONTIAC        PTCLDY    81  61  50 W5        30.00S
PORT HURON     PTCLDY    73  64  73 CALM      29.99S
TRI CITIES     CLEAR     79  64  60 SW5       29.98S
MIDLAND        FAIR      80  62  54 SW3       29.97S
TROY           PTCLDY    82  57  42 S7        30.02R
SAGINAW HB     CLEAR     79  61  53 SW3       29.98R
$$
MIZ043>046-050>051-056>058-064>065-071>073-077>080-270200-
SOUTHWEST LOWER MICHIGAN

CITY           SKY/WX    TMP DP  RH WIND       PRES   REMARKS
BATTLE CREEK   CLEAR     77  65  66 NW7       30.03R
BENTON HARBOR  CLEAR     76  65  68 CALM      30.01S
BIG RAPIDS     CLEAR     77  62  60 CALM      30.00F
COLDWATER      CLEAR     76  68  75 CALM      30.02S
FREMONT        FAIR      76  62  62 SW3       30.00F
HOLLAND        CLEAR     75  65  70 W3        30.02S
GRAND RAPIDS   PTCLDY    79  59  50 W8        30.02R
IONIA          FAIR      79  61  53 W7        30.00S
KALAMAZOO      CLEAR     77  63  61 NW6       30.02S
LUDINGTON      CLEAR     75  63  66 SW5       29.98F
MARSHALL       CLEAR     77  65  67 CALM      30.01F
MOUNT PLEASANT CLEAR     81  62  52 W5        29.98S
MUSKEGON       CLEAR     77  64  64 CALM      30.01S
SOUTH HAVEN    CLEAR     75  67  77 CALM      30.02S
$$
MIZ016>042-270200-
NORTHERN LOWER MICHIGAN

CITY           SKY/WX    TMP DP  RH WIND       PRES   REMARKS
ALPENA         CLEAR     73  64  73 E6        29.94F
BEAVER ISLAND  CLEAR     74  62  65 SW13G18   29.93S
BELLAIRE       CLEAR     77  65  65 CALM      29.95R
CADILLAC       CLEAR     75  60  60 SW3       30.01R
CHARLEVOIX     CLEAR     78  64  62 SW3       29.97S
FRANKFORT      CLEAR     76  61  60 SW3       29.97S
GAYLORD        CLEAR     79  59  50 W5        29.98S
GRAYLING       CLEAR     79  60  52 CALM      29.99S
HARBOR SPRINGS CLEAR     76  65  69 W3        29.94S
HOUGHTON LAKE  CLEAR     80  61  52 W9        29.99S
MANISTEE       CLEAR     78  60  53 SW3       29.97S
OSCODA         CLEAR     79  61  54 S9        29.93S
PELLSTON       CLEAR     77  63  61 CALM      29.94S
ROGERS CITY    CLEAR     76  60  57 CALM      29.94F
TRAVERSE CITY  PTCLDY    82  62  50 SW5       29.94R
$$
MIZ007>008-015-270200-
EASTERN UPPER MICHIGAN

CITY           SKY/WX    TMP DP  RH WIND       PRES   REMARKS
KINROSS        CLOUDY    75  65  70 SW3       29.93S
MACKINAC ISLAN CLEAR     74  64  71 SW8       29.92S
NEWBERRY       CLOUDY    70  66  88 S8        29.89F
S. S. MARIE    CLOUDY    77  63  61 SW7       29.91S
$$
MIZ004>006-011>014-085-270200-
CENTRAL UPPER MICHIGAN

CITY           SKY/WX    TMP DP  RH WIND       PRES   REMARKS
MANISTIQUE     CLOUDY    71  66  85 W8        29.93R
ESCANABA       CLEAR     77  68  73 SW8       29.88S
MENOMINEE      CLEAR    N/A N/A N/A SW7       29.93S
SAWYER-GWINN   PTCLDY    70  64  83 CALM      29.94S
$$
MIZ001>003-009>011-084-270200-
WESTERN UPPER MICHIGAN

CITY           SKY/WX    TMP DP  RH WIND       PRES   REMARKS
IRON MOUNTAIN  CLEAR     81  64  56 SW5       29.93R
HOUGHTON       PTCLDY    74  64  71 NW12      29.91F
IRONWOOD       CLOUDY    77  66  69 CALM      29.93S
$$

ABBREVIATIONS USED IN REMARKS
   TC - TEMPERATURE IN CELSIUS
  WCI - WIND CHILL INDEX
   HX - HEAT INDEX
  VSB - VISIBILITY





USA.gov is the U.S. government's official web portal to all federal, state and local government web resources and services.